Skip Page Navigation
NASA JPL Caltech
NASA Logo - Jet Propulsion Laboratory + View the NASA Portal
+ Center for Near-Earth Object Studies
JPL Home Earth Solar System Stars & Galaxies Technology
JPL Solar System Dynamics
BODIES ORBITS EPHEMERIDES TOOLS PHYSICAL DATA DISCOVERY FAQ SITE MAP
JPL Small-Body Database Browser
Search: [ help ]  
67358 (2000 KU31)
Classification: Main-belt Asteroid          SPK-ID: 2067358
Ephemeris | Orbit Diagram | Orbital Elements | Mission Design | Physical Parameters | Discovery Circumstances | Close-Approach Data ]

[ show orbit diagram ]
Orbital Elements at Epoch 2459396.5 (2021-Jul-01.0) TDB
Reference: JPL 33 (heliocentric ecliptic J2000)
 Element Value Uncertainty (1-sigma)   Units 
e .1242580620795403 3.453e-08  
a 3.143327807558732 1.8486e-08 au
q 2.752743985710754 1.1218e-07 au
i 1.006586251659535 4.6899e-06 deg
node 173.9844896750282 0.00021252 deg
peri 96.10315227635256 0.0002134 deg
M 273.2701798139697 2.076e-05 deg
tp 2459886.898218606978
(2022-Nov-03.39821861)
0.00011906 TDB
period 2035.55545624143
5.57
1.7957e-05
4.916e-08
d
yr
n .1768559038252513 1.5602e-09 deg/d
Q 3.533911629406711 2.0783e-08 au
  Orbit Determination Parameters
   # obs. used (total)      1237  
   data-arc span      11206 days (30.68 yr)  
   first obs. used      1990-09-25  
   last obs. used      2021-05-31  
   planetary ephem.      DE441  
   SB-pert. ephem.      SB441-N16  
   condition code      0  
   norm. resid. RMS      .56455  
   source      ORB  
   producer      Otto Matic  
   solution date      2021-Jul-08 08:35:29  

Additional Information
 Earth MOID = 1.73675 au 
 Jupiter MOID = 1.55432 au 
 T_jup = 3.198 
[ show covariance matrix ]

Ephemeris | Orbit Diagram | Orbital Elements | Mission Design | Physical Parameters | Discovery Circumstances | Close-Approach Data ]

Physical Parameter Table
Parameter Symbol Value Units Sigma Reference Notes
absolute magnitude H 14.48   n/a MPCxxxxx  
diameter diameter 8.193 km 0.201 urn:nasa:pds:neowise_diameters_albedos::2.0[mainbelt] (http://adsabs.harvard.edu/abs/2011ApJ...741...68M)  
geometric albedo albedo 0.022   0.004 urn:nasa:pds:neowise_diameters_albedos::2.0[mainbelt] (http://adsabs.harvard.edu/abs/2011ApJ...741...68M)  

67358 (2000 KU31)          Discovered 2000-May-28 by LINEAR at Socorro
Reference: 20030910/Numbers.arcLast Updated: 2004-04-19

[ hide close-approach data ]
Close-Approach Data   ...sorted by Date/Time (TDB)
Date/Time (TDB) Time Uncertainty
(days_HH:MM)
Body Nominal Distance (au) Minimum Distance (au) Maximum Distance (au) V-relative (km/s) V-infinity (km/s) JD (TDB) Time Uncertainty (minutes) Semi-major axis (km) Semi-minor axis (km) range-LOV angle (deg) N-sigma BP Orbit Ref. Reference Modified
1931-Sep-16 02:51 00:02 Jupiter 1.88284441823966 1.88284311378481 1.88284572269439 2.4716746680379 2.28242177579123 2426600.618464551 2.25108492142137 77.4029271281705 21.1857347926293 -69.8834648171467 1714982.51530311 T 33 CATAB v2.0g-lin.ifort 2021-Jul-08 08:35:33 2021-Jul-08 08:35
1942-Jan-19 00:33 00:02 Jupiter 1.5653492278154 1.565348778446 1.56534967718462 1.59722701315417 1.21198958054201 2430378.522661575 1.95945190627661 67.9649586035216 62.852725854271 -61.9712799308859 2483938.70229055 T 33 CATAB v2.0g-lin.ifort 2021-Jul-08 08:35:33 2021-Jul-08 08:35
1952-May-17 00:19 00:02 Jupiter 1.67875285979564 1.67875207249192 1.67875364709983 2.29446083072412 2.06287209101001 2434149.513430083 1.65010922401884 85.9944077277161 5.77389978424232 -89.5758928023838 2258788.41210033 T 33 CATAB v2.0g-lin.ifort 2021-Jul-08 08:35:33 2021-Jul-08 08:35
2025-Nov-02 20:13 < 00:01 Jupiter 1.67560475531315 1.67560435332613 1.67560515729998 1.81786407467815 1.51447174050693 2460982.342430457 0.407195996439934 55.6717632152182 25.7865184665038 -89.9281251952656 2500891.25942707 T 33 CATAB v2.0g-lin.ifort 2021-Jul-08 08:35:33 2021-Jul-08 08:35
2036-Mar-04 02:03 < 00:01 Jupiter 1.58249497982637 1.5824945854824 1.58249537416997 1.80468731083196 1.47865016417351 2464756.585527530 0.73267483479539 56.9791124450259 31.5537769333607 78.9292216216597 2351871.74231323 T 33 CATAB v2.0g-lin.ifort 2021-Jul-08 08:35:33 2021-Jul-08 08:35
2046-Jun-29 20:47 00:01 Jupiter 1.90529990931509 1.90529920374982 1.90530061488068 3.39795185346552 3.26449908815417 2468526.365850191 1.0161612202664 62.4219908030345 17.1654286032735 -70.1588821134981 2813053.09726947 T 33 CATAB v2.0g-lin.ifort 2021-Jul-08 08:35:33 2021-Jul-08 08:35
2109-Aug-14 10:19 00:03 Jupiter 1.82807577446172 1.82807441118183 1.8280771377411 2.24573200906689 2.02894805201633 2491581.929839646 2.63129639558419 78.9850154894904 13.4166848061514 -79.1063388081246 1541814.3044599 T 33 CATAB v2.0g-lin.ifort 2021-Jul-08 08:35:33 2021-Jul-08 08:35
2119-Dec-18 17:59 00:03 Jupiter 1.56551998310996 1.56551956057732 1.56552040564251 1.6034738858149 1.22025864237938 2495360.249441932 3.00901111001393 72.4157523792729 63.7471275233816 75.7472204768876 2475238.05429061 T 33 CATAB v2.0g-lin.ifort 2021-Jul-08 08:35:33 2021-Jul-08 08:35
2130-Apr-15 22:00 00:03 Jupiter 1.7335266172528 1.73352511572427 1.73352811878507 2.55218696685573 2.35296273182989 2499131.416426716 3.38454352506602 165.387940485176 8.74093714463497 -80.982478024704 2333383.58495887 T 33 CATAB v2.0g-lin.ifort 2021-Jul-08 08:35:33 2021-Jul-08 08:35

Alternate Designations
 2000 KU31 = 2001 RG92 
Ephemeris | Orbit Diagram | Orbital Elements | Mission Design | Physical Parameters | Discovery Circumstances | Close-Approach Data ]
ABOUT SSD CREDITS/AWARDS PRIVACY/COPYRIGHT GLOSSARY LINKS
FirstGov 2021-Jul-29 22:58 UT
(server date/time)  
NASA Home Page
Site Manager:   Ryan S. Park
Webmaster  Alan B. Chamberlin